| time (UTC) | temp F | wind direction | speed MPH | gust MPH | rain 1hr in | rain 24hr in | rain mn in | humidity % | barometer mb |
| 20260507140415 | 52 | 0.0 | 0.0 | 0.00 | 0.27 | 0.16 | 82 | 1011.7 | |
| 20260507135915 | 52 | 0.0 | 0.0 | 0.00 | 0.28 | 0.16 | 83 | 1011.7 | |
| 20260507135418 | 52 | 0.0 | 0.0 | 0.00 | 0.29 | 0.16 | 81 | 1011.8 | |
| 20260507134415 | 52 | 0.0 | 0.0 | 0.00 | 0.32 | 0.16 | 82 | 1011.8 | |
| 20260507133915 | 52 | 0.0 | 0.0 | 0.00 | 0.34 | 0.16 | 84 | 1011.6 | |
| 20260507133414 | 52 | 0.0 | 0.0 | 0.00 | 0.35 | 0.16 | 84 | 1011.8 | |
| 20260507132914 | 52 | 0.0 | 0.0 | 0.00 | 0.38 | 0.16 | 84 | 1011.9 | |
| 20260507131914 | 52 | 0.0 | 0.0 | 0.00 | 0.41 | 0.16 | 87 | 1011.6 | |
| 20260507131414 | 52 | 0.0 | 0.0 | 0.00 | 0.42 | 0.16 | 88 | 1011.6 | |
| 20260507130914 | 51 | 0.0 | 0.0 | 0.00 | 0.42 | 0.16 | 88 | 1011.6 | |
| 20260507130413 | 51 | 0.0 | 0.0 | 0.00 | 0.43 | 0.16 | 87 | 1011.7 | |
| 20260507125914 | 51 | 0.0 | 0.0 | 0.00 | 0.43 | 0.16 | 90 | 1011.7 | |
| 20260507125415 | 51 | 0.0 | 0.0 | 0.00 | 0.44 | 0.16 | 91 | 1011.9 | |
| 20260507124914 | 51 | 0.0 | 0.0 | 0.00 | 0.44 | 0.16 | 92 | 1011.8 | |
| 20260507124413 | 51 | 0.0 | 0.0 | 0.00 | 0.45 | 0.16 | 92 | 1011.7 | |
| 20260507123913 | 51 | 0.0 | 0.0 | 0.00 | 0.45 | 0.16 | 92 | 1011.6 | |
| 20260507123414 | 51 | 0.0 | 0.0 | 0.00 | 0.46 | 0.16 | 92 | 1011.7 | |
| 20260507122913 | 51 | 0.0 | 0.0 | 0.00 | 0.46 | 0.16 | 92 | 1011.6 | |
| 20260507122406 | 51 | 0.0 | 0.0 | 0.00 | 0.47 | 0.16 | 92 | 1011.5 | |
| 20260507121906 | 51 | 0.0 | 0.0 | 0.00 | 0.47 | 0.16 | 93 | 1011.6 | |
| 20260507121404 | 51 | 0.0 | 0.0 | 0.00 | 0.48 | 0.16 | 93 | 1011.7 | |
| 20260507120904 | 51 | 0.0 | 0.0 | 0.00 | 0.48 | 0.16 | 93 | 1011.6 | |
| 20260507120403 | 51 | 0.0 | 0.0 | 0.00 | 0.48 | 0.16 | 92 | 1011.6 | |
| 20260507115905 | 51 | 0.0 | 0.0 | 0.00 | 0.48 | 0.16 | 92 | 1011.4 | |
| 20260507115405 | 51 | 0.0 | 0.0 | 0.00 | 0.48 | 0.16 | 92 | 1011.3 | |
| 20260507114903 | 51 | 0.0 | 0.0 | 0.00 | 0.48 | 0.16 | 92 | 1011.4 | |
| 20260507114403 | 51 | 0.0 | 0.0 | 0.00 | 0.48 | 0.16 | 92 | 1011.4 | |
| 20260507113903 | 51 | 0.0 | 0.0 | 0.00 | 0.48 | 0.16 | 92 | 1011.2 | |
| 20260507113404 | 51 | 0.0 | 0.0 | 0.00 | 0.48 | 0.16 | 92 | 1011.1 | |
| 20260507112905 | 51 | 0.0 | 0.0 | 0.00 | 0.48 | 0.16 | 92 | 1011.2 | |
| 20260507112403 | 51 | 0.0 | 0.0 | 0.00 | 0.48 | 0.16 | 92 | 1011.1 | |
| 20260507111905 | 52 | 0.0 | 0.0 | 0.00 | 0.48 | 0.16 | 92 | 1011.1 | |
| 20260507111403 | 52 | 0.0 | 0.0 | 0.00 | 0.48 | 0.16 | 93 | 1011.2 | |
| 20260507110903 | 52 | 0.0 | 0.0 | 0.00 | 0.48 | 0.16 | 93 | 1011.3 | |
| 20260507110403 | 52 | 0.0 | 0.0 | 0.00 | 0.48 | 0.16 | 93 | 1011.2 | |
| 20260507105905 | 52 | 0.0 | 0.0 | 0.00 | 0.48 | 0.16 | 93 | 1011.2 | |
| 20260507104903 | 53 | 0.0 | 0.0 | 0.00 | 0.48 | 0.16 | 93 | 1011.1 | |
| 20260507104403 | 53 | 0.0 | 0.0 | 0.00 | 0.48 | 0.16 | 93 | 1010.9 | |
| 20260507103903 | 53 | 0.0 | 0.0 | 0.00 | 0.48 | 0.16 | 94 | 1010.8 | |
| 20260507103403 | 53 | 0.0 | 0.0 | 0.00 | 0.48 | 0.16 | 94 | 1010.8 | |
| 20260507102904 | 53 | 0.0 | 0.0 | 0.00 | 0.48 | 0.16 | 94 | 1010.7 | |
| 20260507102405 | 53 | 0.0 | 0.0 | 0.00 | 0.48 | 0.16 | 94 | 1010.7 | |
| 20260507101904 | 53 | 0.0 | 0.0 | 0.00 | 0.48 | 0.16 | 93 | 1010.7 | |
| 20260507101403 | 53 | 0.0 | 0.0 | 0.00 | 0.48 | 0.16 | 93 | 1010.6 | |
| 20260507100904 | 53 | 0.0 | 0.0 | 0.00 | 0.48 | 0.16 | 93 | 1010.7 | |
| 20260507100404 | 53 | 0.0 | 0.0 | 0.00 | 0.48 | 0.16 | 93 | 1010.5 | |
| 20260507095904 | 53 | 0.0 | 0.0 | 0.00 | 0.48 | 0.16 | 93 | 1010.5 | |
| 20260507095404 | 53 | 0.0 | 0.0 | 0.00 | 0.48 | 0.16 | 93 | 1010.6 | |
| 20260507094903 | 53 | 0.0 | 0.0 | 0.00 | 0.48 | 0.16 | 93 | 1010.6 | |
| 20260507094403 | 53 | 0.0 | 0.0 | 0.00 | 0.48 | 0.16 | 93 | 1010.7 | |
| 20260507093904 | 53 | 0.0 | 0.0 | 0.00 | 0.48 | 0.16 | 93 | 1010.6 | |
| 20260507093405 | 53 | 0.0 | 0.0 | 0.00 | 0.48 | 0.16 | 93 | 1010.5 | |
| 20260507092903 | 53 | 0.0 | 0.0 | 0.00 | 0.48 | 0.16 | 93 | 1010.3 | |
| 20260507092403 | 53 | 0.0 | 0.0 | 0.00 | 0.48 | 0.16 | 93 | 1010.2 | |
| 20260507091904 | 53 | 0.0 | 0.0 | 0.00 | 0.48 | 0.16 | 93 | 1010.3 | |
| 20260507090903 | 53 | 0.0 | 0.0 | 0.00 | 0.48 | 0.16 | 93 | 1010.4 | |
| 20260507090405 | 53 | 0.0 | 0.0 | 0.00 | 0.48 | 0.16 | 93 | 1010.5 | |
| 20260507085903 | 53 | 0.0 | 0.0 | 0.00 | 0.48 | 0.16 | 93 | 1010.5 | |
| 20260507085403 | 53 | 0.0 | 0.0 | 0.00 | 0.48 | 0.16 | 93 | 1010.4 | |
| 20260507084903 | 53 | 0.0 | 0.0 | 0.00 | 0.48 | 0.16 | 93 | 1010.3 | |
| 20260507084403 | 53 | 0.0 | 0.0 | 0.00 | 0.48 | 0.16 | 92 | 1010.3 | |
| 20260507083403 | 53 | 0.0 | 0.0 | 0.00 | 0.48 | 0.16 | 92 | 1010.2 | |
| 20260507082905 | 53 | 0.0 | 0.0 | 0.00 | 0.48 | 0.16 | 92 | 1010.2 | |
| 20260507082404 | 53 | 0.0 | 0.0 | 0.00 | 0.48 | 0.16 | 92 | 1010.0 | |
| 20260507081904 | 54 | 0.0 | 0.0 | 0.00 | 0.48 | 0.16 | 92 | 1010.0 | |
| 20260507081404 | 54 | 0.0 | 0.0 | 0.00 | 0.48 | 0.16 | 92 | 1009.9 | |
| 20260507080904 | 54 | 0.0 | 0.0 | 0.00 | 0.48 | 0.16 | 92 | 1009.6 | |
| 20260507080404 | 54 | 0.0 | 0.0 | 0.00 | 0.48 | 0.16 | 92 | 1009.8 | |
| 20260507075403 | 54 | 0.0 | 0.0 | 0.00 | 0.48 | 0.16 | 92 | 1009.6 | |
| 20260507074904 | 54 | 0.0 | 0.0 | 0.00 | 0.48 | 0.16 | 92 | 1009.6 | |
| 20260507074402 | 54 | 0.0 | 0.0 | 0.00 | 0.48 | 0.16 | 92 | 1009.6 | |
| 20260507073902 | 54 | 0.0 | 0.0 | 0.00 | 0.48 | 0.16 | 92 | 1009.5 | |
| 20260507073406 | 54 | 0.0 | 0.0 | 0.00 | 0.48 | 0.16 | 92 | 1009.4 | |
| 20260507072903 | 55 | 0.0 | 0.0 | 0.00 | 0.48 | 0.16 | 92 | 1009.5 | |
| 20260507072404 | 55 | 0.0 | 0.0 | 0.00 | 0.48 | 0.16 | 92 | 1009.6 | |
| 20260507071903 | 55 | 0.0 | 0.0 | 0.00 | 0.48 | 0.16 | 93 | 1009.4 | |
| 20260507071403 | 55 | 0.0 | 0.0 | 0.00 | 0.48 | 0.16 | 93 | 1009.4 | |
| 20260507070904 | 55 | 0.0 | 0.0 | 0.00 | 0.48 | 0.16 | 93 | 1009.3 | |
| 20260507070403 | 56 | 0.0 | 0.0 | 0.00 | 0.48 | 0.16 | 92 | 1009.3 | |
| 20260507065903 | 56 | 0.0 | 0.0 | 0.00 | 0.48 | 0.16 | 93 | 1009.5 | |
| 20260507065404 | 56 | 0.0 | 0.0 | 0.00 | 0.48 | 0.16 | 92 | 1009.4 | |
| 20260507064904 | 56 | 0.0 | 0.0 | 0.01 | 0.48 | 0.16 | 92 | 1009.4 | |
| 20260507064403 | 56 | 0.0 | 0.0 | 0.01 | 0.48 | 0.16 | 92 | 1009.5 | |
| 20260507063903 | 56 | 0.0 | 0.0 | 0.01 | 0.48 | 0.16 | 92 | 1009.5 | |
| 20260507062903 | 56 | 0.0 | 0.0 | 0.01 | 0.48 | 0.16 | 92 | 1009.6 | |
| 20260507062403 | 56 | 0.0 | 0.0 | 0.01 | 0.48 | 0.16 | 92 | 1009.5 | |
| 20260507061905 | 56 | 0.0 | 0.0 | 0.01 | 0.48 | 0.16 | 91 | 1009.4 | |
| 20260507060903 | 56 | 0.0 | 0.0 | 0.01 | 0.48 | 0.16 | 91 | 1009.4 | |
| 20260507060403 | 56 | 0.0 | 0.0 | 0.02 | 0.48 | 0.16 | 91 | 1009.2 | |
| 20260507055903 | 57 | 0.0 | 0.0 | 0.07 | 0.45 | 0.16 | 90 | 1009.4 | |
| 20260507054904 | 57 | 0.0 | 0.0 | 0.12 | 0.45 | 0.15 | 89 | 1009.7 | |
| 20260507054403 | 57 | 0.0 | 0.0 | 0.15 | 0.45 | 0.15 | 89 | 1009.6 | |
| 20260507053904 | 57 | 0.0 | 0.0 | 0.15 | 0.45 | 0.15 | 89 | 1009.7 | |
| 20260507053403 | 58 | 0.0 | 0.0 | 0.15 | 0.45 | 0.15 | 88 | 1009.7 | |
| 20260507052904 | 58 | 0.0 | 0.0 | 0.15 | 0.45 | 0.15 | 88 | 1009.6 | |
| 20260507052402 | 58 | 0.0 | 0.0 | 0.15 | 0.45 | 0.15 | 87 | 1009.8 | |
| 20260507051902 | 58 | 0.0 | 0.0 | 0.15 | 0.45 | 0.15 | 87 | 1009.4 | |
| 20260507051403 | 59 | 0.0 | 0.0 | 0.15 | 0.45 | 0.15 | 85 | 1009.3 | |
| 20260507050903 | 59 | 0.0 | 0.0 | 0.15 | 0.45 | 0.14 | 85 | 1009.6 | |
| 20260507050403 | 59 | 0.0 | 0.0 | 0.14 | 0.45 | 0.14 | 85 | 1009.6 | |
| 20260507045401 | 60 | 0.0 | 0.0 | 0.06 | 0.32 | 0.05 | 83 | 1010.1 | |
| 20260507044901 | 60 | 0.0 | 0.0 | 0.03 | 0.32 | 0.02 | 82 | 1009.9 | |
| 20260507044401 | 60 | 0.0 | 0.0 | 0.00 | 0.32 | 0.00 | 77 | 1009.6 | |
| 20260507043902 | 60 | 0.0 | 0.0 | 0.00 | 0.32 | 0.00 | 77 | 1009.5 | |
| 20260507043402 | 61 | 0.0 | 0.0 | 0.00 | 0.32 | 0.00 | 76 | 1009.3 | |
| 20260507042903 | 61 | 0.0 | 0.0 | 0.00 | 0.32 | 0.00 | 76 | 1009.7 | |
| 20260507042401 | 61 | 0.0 | 0.0 | 0.00 | 0.32 | 0.00 | 76 | 1009.8 | |
| 20260507041900 | 61 | 0.0 | 0.0 | 0.00 | 0.32 | 0.00 | 75 | 1009.8 | |
| 20260507041402 | 62 | 0.0 | 0.0 | 0.00 | 0.32 | 0.00 | 75 | 1009.6 | |
| 20260507040900 | 62 | 0.0 | 0.0 | 0.00 | 0.32 | 0.00 | 75 | 1009.5 | |
| 20260507040400 | 62 | 0.0 | 0.0 | 0.00 | 0.32 | 0.00 | 75 | 1009.5 | |
| 20260507034900 | 62 | 0.0 | 0.0 | 0.00 | 0.32 | 0.32 | 74 | 1009.1 | |
| 20260507033858 | 62 | 0.0 | 0.0 | 0.00 | 0.32 | 0.32 | 75 | 1009.1 | |
| 20260507033400 | 63 | 0.0 | 0.0 | 0.00 | 0.32 | 0.32 | 75 | 1009.2 | |
| 20260507032900 | 63 | 0.0 | 0.0 | 0.00 | 0.32 | 0.32 | 76 | 1009.1 | |
| 20260507032359 | 63 | 0.0 | 0.0 | 0.00 | 0.32 | 0.32 | 76 | 1009.3 | |
| 20260507031859 | 63 | 0.0 | 0.0 | 0.00 | 0.32 | 0.32 | 77 | 1009.2 | |
| 20260507031402 | 63 | 0.0 | 0.0 | 0.00 | 0.32 | 0.32 | 78 | 1009.2 | |
| 20260507030859 | 63 | 0.0 | 0.0 | 0.00 | 0.32 | 0.32 | 78 | 1008.9 | |
| 20260507030358 | 63 | 0.0 | 0.0 | 0.00 | 0.32 | 0.32 | 77 | 1008.7 | |
| 20260507025858 | 64 | 0.0 | 0.0 | 0.00 | 0.32 | 0.32 | 76 | 1008.5 | |
| 20260507025357 | 64 | 0.0 | 0.0 | 0.00 | 0.32 | 0.32 | 76 | 1008.6 | |
| 20260507024859 | 64 | 0.0 | 0.0 | 0.00 | 0.32 | 0.32 | 76 | 1008.7 | |
| 20260507024358 | 64 | 0.0 | 0.0 | 0.00 | 0.32 | 0.32 | 75 | 1008.7 | |
| 20260507023858 | 64 | 0.0 | 0.0 | 0.00 | 0.32 | 0.32 | 74 | 1008.7 | |
| 20260507023358 | 64 | 0.0 | 0.0 | 0.00 | 0.32 | 0.32 | 74 | 1008.5 | |
| 20260507022858 | 64 | 0.0 | 0.0 | 0.00 | 0.32 | 0.32 | 74 | 1008.5 | |
| 20260507022358 | 64 | 0.0 | 0.0 | 0.00 | 0.32 | 0.32 | 74 | 1008.5 | |
| 20260507021858 | 65 | 0.0 | 0.0 | 0.00 | 0.32 | 0.32 | 75 | 1008.7 | |
| 20260507021358 | 65 | 0.0 | 0.0 | 0.00 | 0.32 | 0.32 | 76 | 1008.5 | |
| 20260507020859 | 65 | 0.0 | 0.0 | 0.00 | 0.32 | 0.32 | 76 | 1008.3 | |
| 20260507020357 | 65 | 0.0 | 0.0 | 0.00 | 0.32 | 0.32 | 76 | 1008.2 | |
| 20260507015900 | 65 | 0.0 | 0.0 | 0.00 | 0.32 | 0.32 | 76 | 1008.0 | |
| 20260507015357 | 66 | 0.0 | 0.0 | 0.00 | 0.32 | 0.32 | 76 | 1008.0 | |
| 20260507014857 | 66 | 0.0 | 0.0 | 0.00 | 0.32 | 0.32 | 77 | 1008.2 | |
| 20260507014357 | 66 | 0.0 | 0.0 | 0.00 | 0.32 | 0.32 | 77 | 1008.2 | |
| 20260507013856 | 66 | 0.0 | 0.0 | 0.00 | 0.32 | 0.32 | 77 | 1008.3 | |
| 20260507013358 | 67 | 0.0 | 0.0 | 0.00 | 0.32 | 0.32 | 77 | 1008.5 | |
| 20260507012856 | 67 | 0.0 | 0.0 | 0.00 | 0.32 | 0.32 | 77 | 1008.4 | |
| 20260507012358 | 67 | 0.0 | 0.0 | 0.00 | 0.32 | 0.32 | 78 | 1008.5 | |
| 20260507011856 | 67 | 0.0 | 0.0 | 0.00 | 0.32 | 0.32 | 79 | 1008.4 | |
| 20260507011357 | 67 | 0.0 | 0.0 | 0.00 | 0.32 | 0.32 | 82 | 1008.4 | |
| 20260507010856 | 67 | 0.0 | 0.0 | 0.00 | 0.32 | 0.32 | 82 | 1008.2 | |
| 20260507010356 | 67 | 0.0 | 0.0 | 0.00 | 0.32 | 0.32 | 81 | 1008.3 | |
| 20260507005856 | 67 | 0.0 | 0.0 | 0.00 | 0.32 | 0.32 | 81 | 1008.4 | |
| 20260507005356 | 67 | 0.0 | 0.0 | 0.00 | 0.32 | 0.32 | 81 | 1008.3 | |
| 20260507004356 | 67 | 0.0 | 0.0 | 0.00 | 0.32 | 0.32 | 81 | 1008.0 | |
| 20260507003855 | 67 | 0.0 | 0.0 | 0.00 | 0.32 | 0.32 | 81 | 1008.0 | |
| 20260507002854 | 68 | 0.0 | 0.0 | 0.00 | 0.32 | 0.32 | 80 | 1007.9 | |
| 20260507002354 | 68 | 0.0 | 0.0 | 0.00 | 0.32 | 0.32 | 80 | 1007.8 | |
| 20260507001853 | 68 | 0.0 | 0.0 | 0.00 | 0.32 | 0.32 | 80 | 1007.8 | |
| 20260507000854 | 68 | 0.0 | 0.0 | 0.00 | 0.32 | 0.32 | 80 | 1007.5 | |
| 20260507000353 | 68 | 0.0 | 0.0 | 0.00 | 0.32 | 0.32 | 80 | 1007.6 | |
| 20260506235855 | 68 | 0.0 | 0.0 | 0.00 | 0.32 | 0.32 | 80 | 1007.7 | |
| 20260506235352 | 68 | 0.0 | 0.0 | 0.00 | 0.32 | 0.32 | 79 | 1007.6 | |
| 20260506234852 | 68 | 0.0 | 0.0 | 0.00 | 0.32 | 0.32 | 79 | 1007.7 | |
| 20260506234353 | 68 | 0.0 | 0.0 | 0.00 | 0.32 | 0.32 | 78 | 1007.6 | |
| 20260506233352 | 69 | 0.0 | 0.0 | 0.00 | 0.32 | 0.32 | 78 | 1007.3 | |
| 20260506232852 | 69 | 0.0 | 0.0 | 0.00 | 0.32 | 0.32 | 78 | 1007.3 | |
| 20260506232353 | 69 | 0.0 | 0.0 | 0.00 | 0.32 | 0.32 | 78 | 1007.3 | |
| 20260506231853 | 69 | 0.0 | 0.0 | 0.00 | 0.32 | 0.32 | 78 | 1007.4 | |
| 20260506231352 | 69 | 0.0 | 0.0 | 0.00 | 0.32 | 0.32 | 78 | 1007.1 | |
| 20260506230852 | 69 | 0.0 | 0.0 | 0.00 | 0.32 | 0.32 | 77 | 1007.1 | |
| 20260506225853 | 69 | 0.0 | 0.0 | 0.00 | 0.32 | 0.32 | 78 | 1007.1 | |
| 20260506225351 | 69 | 0.0 | 0.0 | 0.00 | 0.32 | 0.32 | 78 | 1007.0 | |
| 20260506224351 | 70 | 0.0 | 0.0 | 0.00 | 0.32 | 0.32 | 77 | 1007.2 | |
| 20260506223851 | 70 | 0.0 | 0.0 | 0.00 | 0.32 | 0.32 | 77 | 1007.1 | |
| 20260506223349 | 70 | 0.0 | 0.0 | 0.00 | 0.32 | 0.32 | 77 | 1007.0 | |
| 20260506222849 | 70 | 0.0 | 0.0 | 0.00 | 0.32 | 0.32 | 76 | 1007.1 | |
| 20260506222351 | 70 | 0.0 | 0.0 | 0.00 | 0.32 | 0.32 | 77 | 1006.9 | |
| 20260506221850 | 70 | 0.0 | 0.0 | 0.00 | 0.32 | 0.32 | 77 | 1006.9 | |
| 20260506221349 | 70 | 0.0 | 0.0 | 0.00 | 0.32 | 0.32 | 77 | 1007.0 | |
| 20260506220849 | 70 | 0.0 | 0.0 | 0.00 | 0.32 | 0.32 | 76 | 1007.0 | |
| 20260506220349 | 70 | 0.0 | 0.0 | 0.00 | 0.32 | 0.32 | 77 | 1006.9 | |
| 20260506215848 | 70 | 0.0 | 0.0 | 0.00 | 0.32 | 0.32 | 77 | 1006.9 | |
| 20260506215348 | 70 | 0.0 | 0.0 | 0.00 | 0.32 | 0.32 | 76 | 1007.0 | |
| 20260506214349 | 70 | 0.0 | 0.0 | 0.00 | 0.32 | 0.32 | 75 | 1007.0 | |
| 20260506213349 | 71 | 0.0 | 0.0 | 0.00 | 0.32 | 0.32 | 74 | 1006.9 | |
| 20260506212849 | 71 | 0.0 | 0.0 | 0.00 | 0.32 | 0.32 | 73 | 1006.8 | |
| 20260506211348 | 72 | 0.0 | 0.0 | 0.00 | 0.32 | 0.32 | 74 | 1006.7 | |
| 20260506210847 | 72 | 0.0 | 0.0 | 0.00 | 0.32 | 0.32 | 73 | 1006.7 | |
| 20260506210349 | 72 | 0.0 | 0.0 | 0.00 | 0.32 | 0.32 | 73 | 1006.7 | |
| 20260506205847 | 72 | 0.0 | 0.0 | 0.00 | 0.32 | 0.32 | 73 | 1006.4 | |
| 20260506204848 | 72 | 0.0 | 0.0 | 0.00 | 0.32 | 0.32 | 73 | 1006.5 | |
| 20260506204347 | 72 | 0.0 | 0.0 | 0.00 | 0.32 | 0.32 | 74 | 1006.5 | |
| 20260506203847 | 72 | 0.0 | 0.0 | 0.00 | 0.32 | 0.32 | 75 | 1006.4 | |
| 20260506203347 | 71 | 0.0 | 0.0 | 0.00 | 0.32 | 0.32 | 76 | 1006.3 | |
| 20260506202346 | 71 | 0.0 | 0.0 | 0.00 | 0.32 | 0.32 | 74 | 1006.6 | |
| 20260506201846 | 71 | 0.0 | 0.0 | 0.00 | 0.32 | 0.32 | 75 | 1006.5 | |
| 20260506201346 | 71 | 0.0 | 0.0 | 0.00 | 0.32 | 0.32 | 72 | 1006.6 | |
| 20260506200346 | 71 | 0.0 | 0.0 | 0.00 | 0.32 | 0.32 | 74 | 1006.6 | |
| 20260506195847 | 71 | 0.0 | 0.0 | 0.00 | 0.32 | 0.32 | 74 | 1006.6 | |
| 20260506195347 | 71 | 0.0 | 0.0 | 0.00 | 0.32 | 0.32 | 75 | 1006.5 | |
| 20260506194848 | 71 | 0.0 | 0.0 | 0.00 | 0.32 | 0.32 | 75 | 1006.5 | |
| 20260506194346 | 71 | 0.0 | 0.0 | 0.00 | 0.32 | 0.32 | 75 | 1006.7 | |
| 20260506192846 | 71 | 0.0 | 0.0 | 0.00 | 0.32 | 0.32 | 74 | 1006.7 | |
| 20260506192346 | 71 | 0.0 | 0.0 | 0.00 | 0.32 | 0.32 | 77 | 1006.8 | |
| 20260506190844 | 69 | 0.0 | 0.0 | 0.00 | 0.32 | 0.32 | 80 | 1006.9 | |
| 20260506185845 | 69 | 0.0 | 0.0 | 0.00 | 0.32 | 0.32 | 79 | 1007.0 | |
| 20260506185340 | 68 | 0.0 | 0.0 | 0.00 | 0.32 | 0.32 | 80 | 1006.9 | |
| 20260506184841 | 68 | 0.0 | 0.0 | 0.00 | 0.32 | 0.32 | 81 | 1007.0 | |
| 20260506184338 | 68 | 0.0 | 0.0 | 0.00 | 0.32 | 0.32 | 81 | 1007.1 | |
| 20260506183833 | 67 | 0.0 | 0.0 | 0.00 | 0.32 | 0.32 | 81 | 1007.0 | |
| 20260506183333 | 67 | 0.0 | 0.0 | 0.00 | 0.32 | 0.32 | 80 | 1007.2 | |
| 20260506182832 | 67 | 0.0 | 0.0 | 0.00 | 0.32 | 0.32 | 81 | 1007.3 | |
| 20260506182333 | 67 | 0.0 | 0.0 | 0.00 | 0.32 | 0.32 | 81 | 1007.3 | |
| 20260506181831 | 67 | 0.0 | 0.0 | 0.00 | 0.32 | 0.32 | 81 | 1007.1 | |
| 20260506181331 | 67 | 0.0 | 0.0 | 0.00 | 0.32 | 0.32 | 81 | 1007.2 | |
| 20260506180831 | 67 | 0.0 | 0.0 | 0.00 | 0.32 | 0.32 | 83 | 1007.3 | |
| 20260506180329 | 66 | 0.0 | 0.0 | 0.00 | 0.32 | 0.32 | 83 | 1007.4 | |
| 20260506175829 | 66 | 0.0 | 0.0 | 0.00 | 0.32 | 0.32 | 83 | 1007.5 | |
| 20260506175331 | 66 | 0.0 | 0.0 | 0.00 | 0.32 | 0.32 | 84 | 1007.3 | |
| 20260506174830 | 65 | 0.0 | 0.0 | 0.00 | 0.32 | 0.32 | 85 | 1007.7 | |
| 20260506173820 | 65 | 0.0 | 0.0 | 0.00 | 0.32 | 0.32 | 86 | 1007.5 | |
| 20260506173320 | 65 | 0.0 | 0.0 | 0.00 | 0.32 | 0.32 | 87 | 1007.5 | |
| 20260506172820 | 64 | 0.0 | 0.0 | 0.00 | 0.32 | 0.32 | 87 | 1007.6 | |
| 20260506171818 | 64 | 0.0 | 0.0 | 0.00 | 0.32 | 0.32 | 89 | 1007.6 | |
| 20260506171314 | 64 | 0.0 | 0.0 | 0.00 | 0.32 | 0.32 | 89 | 1007.6 | |
| 20260506170814 | 63 | 0.0 | 0.0 | 0.00 | 0.32 | 0.32 | 89 | 1007.7 | |
| 20260506170307 | 63 | 0.0 | 0.0 | 0.00 | 0.32 | 0.32 | 89 | 1007.6 | |
| 20260506165807 | 63 | 0.0 | 0.0 | 0.00 | 0.32 | 0.32 | 89 | 1007.8 | |
| 20260506165305 | 63 | 0.0 | 0.0 | 0.00 | 0.32 | 0.32 | 90 | 1007.8 | |
| 20260506164804 | 63 | 0.0 | 0.0 | 0.00 | 0.32 | 0.32 | 90 | 1007.7 | |
| 20260506162804 | 62 | 0.0 | 0.0 | 0.00 | 0.32 | 0.32 | 92 | 1008.0 | |
| 20260506162306 | 62 | 0.0 | 0.0 | 0.00 | 0.32 | 0.32 | 93 | 1007.8 | |
| 20260506161303 | 62 | 0.0 | 0.0 | 0.01 | 0.32 | 0.32 | 93 | 1007.9 | |
| 20260506160803 | 62 | 0.0 | 0.0 | 0.02 | 0.32 | 0.32 | 93 | 1008.0 | |
| 20260506160304 | 62 | 0.0 | 0.0 | 0.03 | 0.32 | 0.32 | 93 | 1007.8 | |
| 20260506155305 | 61 | 0.0 | 0.0 | 0.04 | 0.29 | 0.32 | 94 | 1008.0 | |
| 20260506154805 | 61 | 0.0 | 0.0 | 0.04 | 0.29 | 0.32 | 94 | 1008.1 | |
| 20260506154303 | 61 | 0.0 | 0.0 | 0.05 | 0.29 | 0.32 | 94 | 1007.9 | |
| 20260506153804 | 61 | 0.0 | 0.0 | 0.05 | 0.29 | 0.32 | 93 | 1008.0 | |
| 20260506153303 | 61 | 0.0 | 0.0 | 0.05 | 0.29 | 0.32 | 93 | 1008.2 | |
| 20260506152803 | 61 | 0.0 | 0.0 | 0.05 | 0.29 | 0.32 | 93 | 1008.3 | |
| 20260506152306 | 60 | 0.0 | 0.0 | 0.06 | 0.29 | 0.32 | 93 | 1008.0 | |
| 20260506151803 | 60 | 0.0 | 0.0 | 0.06 | 0.29 | 0.31 | 93 | 1008.1 | |
| 20260506151304 | 61 | 0.0 | 0.0 | 0.07 | 0.29 | 0.31 | 93 | 1008.3 | |
| 20260506150803 | 61 | 0.0 | 0.0 | 0.09 | 0.29 | 0.30 | 93 | 1008.3 | |
| 20260506150305 | 61 | 0.0 | 0.0 | 0.08 | 0.29 | 0.29 | 93 | 1008.4 | |
| 20260506145803 | 61 | 0.0 | 0.0 | 0.09 | 0.20 | 0.28 | 93 | 1008.6 | |
| 20260506144803 | 61 | 0.0 | 0.0 | 0.10 | 0.20 | 0.28 | 93 | 1008.9 | |
| 20260506144303 | 61 | 0.0 | 0.0 | 0.12 | 0.20 | 0.27 | 93 | 1008.8 | |
| 20260506143803 | 60 | 0.0 | 0.0 | 0.13 | 0.20 | 0.27 | 92 | 1008.8 | |
| 20260506143303 | 60 | 0.0 | 0.0 | 0.15 | 0.20 | 0.27 | 92 | 1008.7 | |
| 20260506142803 | 60 | 0.0 | 0.0 | 0.18 | 0.20 | 0.27 | 92 | 1008.9 | |
| 20260506142305 | 60 | 0.0 | 0.0 | 0.18 | 0.20 | 0.26 | 92 | 1008.8 | |
| 20260506140804 | 61 | 0.0 | 0.0 | 0.16 | 0.20 | 0.21 | 91 | 1008.6 |